DW6083 Weather Reports


Display with metric or nautical units.
time (UTC)temp
F
wind
direction
speed
MPH
gust
MPH
rain 1hr
in
rain 24hr
in
rain mn
in
humidity
%
barometer
mb
20260905171513 0 159 2.0 9.0 0.00 0.00 0.00 1012.2
20260905170100 0 158 1.0 7.0 0.00 0.00 0.00 1012.5
20260905164555 0 159 2.0 5.0 0.00 0.00 0.00 1012.9
20260905163052 0 159 3.0 7.0 0.00 0.00 0.00 1013.1
20260905161549 0 158 2.0 6.0 0.00 0.00 0.00 1013.3
20260905160052 0 158 1.0 6.0 0.00 0.00 0.00 1013.3
20260905154555 0 159 3.0 7.0 0.00 0.00 0.00 1013.5
20260905153046 0 159 4.0 7.0 0.00 0.00 0.00 1013.6
20260905153017 0 158 3.0 7.0 0.00 0.00 0.00 1013.6
20260905151545 0 158 3.0 7.0 0.00 0.00 0.00 1013.7
20260905150113 0 159 2.0 8.0 0.00 0.00 0.00 1013.9
20260905144550 0 159 2.0 6.0 0.00 0.00 0.00 1014.1
20260905143019 0 158 4.0 8.0 0.00 0.00 0.00 1014.1
20260905141503 0 158 2.0 5.0 0.00 0.00 0.00 1014.2
20260905140052 0 158 1.0 6.0 0.00 0.00 0.00 1014.2
20260905134623 0 158 0.0 3.0 0.00 0.00 0.00 1014.2
20260905133058 0 158 2.0 8.0 0.00 0.00 0.00 1014.3
20260905131525 0 148 0.0 1.0 0.00 0.00 0.00 1014.4
20260905123124 0 148 0.0 1.0 0.00 0.00 0.00 1014.3
20260905121624 0 148 0.0 1.0 0.00 0.00 0.00 1014.2
20260905120014 0 148 0.0 0.0 0.00 0.00 0.00 1014.0
20260905103003 0 148 0.0 0.0 0.00 0.00 0.00 1013.4
20260905101555 0 148 0.0 0.0 0.00 0.00 0.00 1013.4
20260905100031 0 148 0.0 0.0 0.00 0.00 0.00 1013.3
20260905094644 0 148 0.0 0.0 0.00 0.00 0.00 1013.2
20260905091504 0 148 0.0 0.0 0.00 0.00 0.00 1013.3
20260905090003 0 148 0.0 0.0 0.00 0.00 0.00 1013.3
20260905084643 0 148 0.0 0.0 0.00 0.00 0.00 1013.3
20260905080017 0 148 0.0 0.0 0.00 0.00 0.00 1013.5
20260905064518 0 148 0.0 0.0 0.00 0.00 0.00 1013.6
20260905063100 0 148 0.0 0.0 0.00 0.00 0.00 1013.6
20260905061527 0 148 0.0 0.0 0.00 0.00 0.00 1013.9
20260905060017 0 148 0.0 0.0 0.00 0.00 0.00 1013.9
20260905054512 0 148 0.0 0.0 0.00 0.00 0.00 1014.2
20260905053117 0 148 0.0 0.0 0.00 0.00 0.00 1014.2
20260905051502 0 148 0.0 0.0 0.00 0.00 0.00 1014.2
20260905050057 0 148 0.0 0.0 0.00 0.00 0.00 1014.1
20260905044554 0 148 0.0 1.0 0.00 0.00 0.00 1014.4
20260905043108 0 148 0.0 0.0 0.00 0.00 0.00 1014.6
20260905041541 0 148 0.0 2.0 0.00 0.00 0.00 1014.4
20260905040030 0 148 0.0 2.0 0.00 0.00 0.00 1014.5
20260905034529 0 148 0.0 1.0 0.00 0.00 0.00 1014.5
20260905033023 0 148 0.0 0.0 0.00 0.00 0.00 1014.7
20260905031523 0 148 0.0 0.0 0.00 0.00 0.00 1014.8
20260905030023 0 148 0.0 0.0 0.00 0.00 0.00 1014.7
20260905024522 0 148 0.0 1.0 0.00 0.00 0.00 1014.9
20260905023021 0 148 0.0 3.0 0.00 0.00 0.00 1014.9
20260905021521 0 148 1.0 6.0 0.00 0.00 0.00 1014.8
20260905020020 0 148 0.0 0.0 0.00 0.00 0.00 1014.5
20260905014520 0 148 0.0 0.0 0.00 0.00 0.00 1014.7
20260905013022 0 148 0.0 0.0 0.00 0.00 0.00 1014.7
20260905011519 0 148 0.0 0.0 0.00 0.00 0.00 1014.7
20260905010021 0 148 0.0 0.0 0.00 0.00 0.00 1014.5
20260905004519 0 148 0.0 0.0 0.00 0.00 0.00 1014.4
20260905003021 0 148 0.0 0.0 0.00 0.00 0.00 1014.2
20260905001516 0 148 0.0 0.0 0.00 0.00 0.00 1014.1
20260905000029 0 148 0.0 0.0 0.00 0.00 0.00 1014.0
20260904234509 0 148 0.0 0.0 0.00 0.00 0.00 1013.9
20260904233005 0 148 0.0 0.0 0.00 0.00 0.00 1013.7
20260904231601 0 148 0.0 0.0 0.00 0.00 0.00 1013.8
20260904230107 0 148 0.0 5.0 0.00 0.00 0.00 1013.7
20260904224555 0 148 0.0 3.0 0.00 0.00 0.00 1013.7
20260904223047 0 148 0.0 5.0 0.00 0.00 0.00 1013.6
20260904221543 0 148 2.0 6.0 0.00 0.00 0.00 1013.6
20260904220100 0 148 3.0 6.0 0.00 0.00 0.00 1013.6
20260904214537 0 148 4.0 8.0 0.00 0.00 0.00 1013.6
20260904213030 0 148 3.0 7.0 0.00 0.00 0.00 1013.7
20260904211529 0 148 4.0 12.0 0.00 0.00 0.00 1013.7
20260904210033 0 148 4.0 9.0 0.00 0.00 0.00 1013.7
20260904204518 0 148 2.0 10.0 0.00 0.00 0.00 1013.9
20260904203027 0 148 5.0 12.0 0.00 0.00 0.00 1014.1
20260904201510 0 146 4.0 10.0 0.00 0.00 0.00 1014.2
20260904200007 0 146 3.0 11.0 0.00 0.00 0.00 1014.5
20260904194613 0 144 2.0 8.0 0.00 0.00 0.00 1014.7
20260904193059 0 144 2.0 7.0 0.00 0.00 0.00 1015.1
20260904193009 0 144 2.0 7.0 0.00 0.00 0.00 1015.2
20260904191554 0 145 4.0 10.0 0.00 0.00 0.00 1015.4
20260904190049 0 145 4.0 11.0 0.00 0.00 0.00 1015.5
20260904184551 0 144 3.0 7.0 0.00 0.00 0.00 1015.5
20260904183043 0 144 2.0 4.0 0.00 0.00 0.00 1015.8
20260904181540 0 144 1.0 8.0 0.00 0.00 0.00 1016.0
20260904180045 0 144 2.0 7.0 0.00 0.00 0.00 1016.1
20260904174540 0 144 1.0 4.0 0.00 0.00 0.00 1016.2
20260904173043 0 144 2.0 7.0 0.00 0.00 0.00 1016.4